This is the latest recevied weather packets stored in our database for station/object KC3AWA. If no packets are shown the sender has not sent any weather packets the latest 10 day(s).
| Time | Temp. | Humidity | Pressure | Rain* | Wind** | Luminosity | Snow |
|---|---|---|---|---|---|---|---|
| 1777607854 | 2.78° C | 85% | 1015.4 hPa | 0 mm | - | 0 W/m² | - |
| 1777607550 | 3.33° C | 83% | 1015.4 hPa | 0 mm | - | 0 W/m² | - |
| 1777607246 | 3.89° C | 80% | 1015.5 hPa | 0 mm | - | 0 W/m² | - |
| 1777606943 | 3.89° C | 76% | 1015.3 hPa | 0 mm | - | 0 W/m² | - |
| 1777606638 | 3.89° C | 78% | 1015.5 hPa | 0 mm | - | 0 W/m² | - |
| 1777606334 | 3.89° C | 78% | 1015.5 hPa | 0 mm | - | 0 W/m² | - |
| 1777606029 | 3.89° C | 79% | 1015.5 hPa | 0 mm | - | 0 W/m² | - |
| 1777605725 | 3.89° C | 80% | 1015.6 hPa | 0 mm | - | 0 W/m² | - |
| 1777605424 | 3.89° C | 81% | 1015.6 hPa | 0 mm | - | 0 W/m² | - |
| 1777605121 | 3.89° C | 81% | 1015.7 hPa | 0 mm | - | 0 W/m² | - |
| 1777604816 | 3.89° C | 81% | 1015.7 hPa | 0 mm | - | 0 W/m² | - |
| 1777604514 | 3.89° C | 81% | 1015.6 hPa | 0 mm | - | 0 W/m² | - |
| 1777604213 | 3.89° C | 82% | 1015.7 hPa | 0 mm | - | 0 W/m² | - |
| 1777603910 | 3.89° C | 79% | 1015.7 hPa | 0 mm | - | 0 W/m² | - |
| 1777603607 | 4.44° C | 76% | 1015.7 hPa | 0 mm | - | 0 W/m² | - |
| 1777603303 | 4.44° C | 76% | 1016 hPa | 0 mm | - | 0 W/m² | - |
| 1777602998 | 4.44° C | 80% | 1015.8 hPa | 0 mm | - | 0 W/m² | - |
| 1777602694 | 3.89° C | 79% | 1015.8 hPa | 0 mm | - | 0 W/m² | - |
| 1777602389 | 3.89° C | 79% | 1015.7 hPa | 0 mm | - | 0 W/m² | - |
| 1777602085 | 3.89° C | 79% | 1015.6 hPa | 0 mm | - | 0 W/m² | - |
| 1777601780 | 3.89° C | 78% | 1015.7 hPa | 0 mm | - | 0 W/m² | - |
| 1777601476 | 3.89° C | 78% | 1015.5 hPa | 0 mm | - | 0 W/m² | - |
| 1777601172 | 3.89° C | 77% | 1015.4 hPa | 0 mm | - | 0 W/m² | - |
| 1777600870 | 3.89° C | 80% | 1015.6 hPa | 0 mm | - | 0 W/m² | - |
| 1777600565 | 3.89° C | 79% | 1015.5 hPa | 0 mm | - | 0 W/m² | - |
* Rain latest hour (hover to see other rain measurements)
** Current wind speed in m/s (hover to see current wind gust speed)